30.06.2024;16:00;3
30.06.2024;15:00;2
30.06.2024;14:00;3
30.06.2024;13:00;2
30.06.2024;12:00;2
30.06.2024;11:00;3
30.06.2024;10:00;3
30.06.2024;09:00;3
30.06.2024;08:00;5
30.06.2024;07:00;5
30.06.2024;06:00;5
30.06.2024;05:00;7
30.06.2024;04:00;11
30.06.2024;03:00;11
30.06.2024;02:00;14
30.06.2024;01:00;12
30.06.2024;00:00;9
29.06.2024;23:00;11
29.06.2024;22:00;15
29.06.2024;21:00;21
29.06.2024;20:00;28
29.06.2024;19:00;16
29.06.2024;18:00;11
29.06.2024;17:00;8
29.06.2024;16:00;9
29.06.2024;15:00;11
29.06.2024;14:00;14
29.06.2024;13:00;12
29.06.2024;12:00;9
29.06.2024;11:00;8
29.06.2024;10:00;11
29.06.2024;09:00;11
29.06.2024;08:00;9
29.06.2024;07:00;7
29.06.2024;06:00;7
29.06.2024;05:00;7
29.06.2024;04:00;7
29.06.2024;03:00;7
29.06.2024;02:00;9
29.06.2024;01:00;9
29.06.2024;00:00;10
28.06.2024;23:00;12
28.06.2024;22:00;10
28.06.2024;21:00;12
28.06.2024;20:00;13
28.06.2024;19:00;8
28.06.2024;18:00;8
28.06.2024;17:00;8
